Theta_e
313 312 312 311 311 312 312 311 312 312 312 312 313 313 313 314 315 316 317 317 316 316 316 316 315 315 314 314 313 313 313 314 314 314 314 314 314 314 314 313 313 312 312 312 312 312 312 312 312 312 312 312 311 310 309 308 307 307 307 307 308 309 310 310 310 310 310 310 311 312 312 312 312 312 311 310 309 309 310 311 311 311 311 311 311 311
312 311 311 311 311 311 311 311 311 311 312 312 312 312 313 313 315 315 316 316 316 315 315 315 314 314 314 313 313 313 313 313 313 313 313 313 313 313 313 312 312 312 311 311 311 312 312 312 312 312 312 312 311 310 309 308 307 306 306 307 308 308 309 308 308 308 309 310 311 311 311 311 310 310 310 309 309 309 309 309 310 310 310 310 310 310
311 311 310 310 310 310 310 310 311 311 311 312 312 312 312 313 314 315 315 315 315 314 314 314 313 313 313 313 312 312 312 312 312 312 312 312 312 312 312 312 311 311 311 311 311 311 311 311 311 311 311 311 311 310 309 307 306 306 306 306 307 308 308 308 308 308 308 309 309 310 310 309 308 308 308 308 308 308 308 308 308 308 308 308 308 309
310 310 309 310 310 310 310 311 311 311 312 312 312 313 313 313 313 314 314 314 314 313 313 313 313 313 312 312 312 312 312 312 311 311 311 311 311 311 311 311 311 310 310 310 310 310 310 311 311 311 311 311 310 309 308 306 305 305 305 305 306 307 307 307 307 307 307 307 307 307 307 307 306 306 306 306 306 307 307 307 307 307 306 306 307 307
309 309 308 309 309 310 311 311 311 312 312 313 313 313 313 313 313 313 313 313 313 312 312 312 312 312 312 312 312 312 311 311 311 311 311 311 311 311 311 310 310 310 310 310 310 310 310 310 310 310 310 310 309 308 307 305 305 304 304 305 305 306 306 306 306 306 306 306 305 305 305 305 305 305 305 305 305 305 306 306 305 305 305 305 305 305
308 308 308 308 309 310 310 311 311 312 312 312 313 312 312 312 312 312 312 312 312 312 312 312 312 312 312 312 311 311 311 310 310 310 310 310 310 310 310 310 310 309 309 309 309 309 309 310 310 310 309 309 308 307 305 304 304 304 304 304 304 304 304 305 305 305 304 304 304 304 304 304 304 304 305 305 305 305 305 305 304 304 304 304 303 303
308 308 308 308 308 309 309 310 311 311 311 312 312 312 312 312 311 311 312 311 312 312 312 312 312 312 312 311 310 310 310 310 310 310 310 310 310 310 309 309 309 309 309 309 309 309 309 309 309 309 309 308 307 306 304 304 303 303 303 303 303 304 304 304 304 303 303 303 303 303 303 303 304 304 304 304 304 304 304 304 304 303 303 303 302 302
307 307 307 307 308 308 309 309 309 310 310 311 311 311 311 311 311 312 312 312 312 312 312 312 311 311 311 310 310 309 309 309 309 309 309 309 309 309 309 309 308 308 308 308 308 308 308 308 308 308 308 307 306 305 304 303 303 303 303 303 303 303 303 303 303 303 303 303 303 303 303 303 303 303 304 304 304 304 304 304 303 303 302 302 301 300
307 307 307 307 307 308 308 308 309 309 310 310 310 311 311 311 312 312 312 312 312 311 311 311 310 310 310 309 309 309 309 309 309 309 309 309 309 309 308 308 308 308 308 308 308 308 308 308 308 308 307 306 305 304 303 303 303 303 303 303 303 303 303 303 303 303 303 302 302 302 302 302 303 303 303 303 303 303 303 303 302 301 301 300 299 298
307 308 308 307 307 308 308 308 309 309 310 310 310 311 311 311 312 312 312 311 311 311 310 310 309 309 309 309 308 308 308 308 308 308 308 308 308 308 308 308 308 308 308 307 308 308 308 308 307 307 306 305 304 304 303 303 303 303 303 303 303 303 303 303 303 303 303 302 302 302 302 302 302 302 302 302 302 302 301 301 300 299 299 298 297 296
308 308 308 308 308 308 309 309 309 310 310 310 311 311 311 311 312 312 311 311 311 310 310 309 309 308 308 308 308 308 308 308 308 308 308 308 308 307 307 307 307 307 307 307 307 307 307 307 307 306 306 305 304 304 303 303 303 303 303 303 302 302 302 302 302 302 302 302 301 301 301 301 300 300 300 300 300 299 299 298 297 297 296 295 294 294
309 309 309 309 309 309 309 310 310 310 310 311 311 311 311 312 312 312 312 311 311 310 310 309 308 308 308 307 307 307 307 307 307 307 307 307 307 307 307 307 306 306 306 306 306 307 307 307 306 306 305 305 304 304 303 303 302 302 302 302 302 302 302 302 302 301 301 300 300 299 299 298 298 298 297 297 297 296 296 295 295 294 293 292 292 292
309 309 309 310 310 310 310 310 310 310 311 311 311 311 312 312 312 312 311 311 311 310 309 309 308 308 307 307 307 307 307 307 307 307 307 307 307 306 306 306 306 306 306 306 306 306 307 306 306 306 305 305 304 303 303 302 302 302 302 302 301 301 301 301 300 299 299 298 297 296 296 295 295 295 294 294 294 294 293 293 292 292 291 291 291 291
308 308 309 309 309 310 310 310 310 310 310 311 311 312 312 312 312 311 311 310 310 309 309 308 307 307 307 307 306 306 306 306 306 306 306 306 306 306 306 306 305 305 305 306 306 306 306 306 306 305 305 304 304 303 303 302 302 301 301 301 300 300 299 298 297 296 295 294 294 293 293 292 292 292 292 292 292 291 291 291 291 290 290 290 290 290
307 308 308 309 309 309 310 310 310 310 310 311 311 311 311 311 311 311 310 310 309 309 308 307 306 306 306 306 306 306 306 306 306 306 306 306 306 306 305 305 305 305 305 305 306 306 306 305 305 305 305 304 304 303 302 302 301 301 300 299 299 298 297 296 294 293 292 292 291 291 290 290 290 290 290 290 290 290 290 290 290 290 290 290 290 290
307 308 309 309 309 309 309 309 309 310 310 310 311 311 311 311 311 311 311 310 310 309 308 306 306 305 305 305 305 305 305 306 306 306 306 305 305 305 305 305 305 305 305 305 306 306 305 305 304 304 304 304 303 302 301 301 300 299 298 298 296 295 294 293 292 291 291 290 290 290 289 289 289 289 290 290 290 290 290 290 290 290 290 290 290 290
308 308 309 309 309 309 310 309 309 309 310 310 310 311 311 311 311 311 311 311 310 309 308 307 306 305 305 305 305 305 305 305 306 306 305 305 305 305 305 305 304 305 305 305 305 305 305 304 304 303 303 303 302 301 301 300 299 298 297 295 294 293 292 291 291 290 290 289 289 289 289 289 289 289 289 290 290 290 290 290 290 290 290 290 290 290
308 309 309 309 309 309 309 309 309 310 310 310 310 311 311 311 311 311 310 310 310 309 309 308 307 306 306 305 305 306 306 305 305 306 305 305 305 305 305 304 304 304 304 305 305 305 304 304 303 303 302 301 301 300 300 299 298 296 295 294 293 292 291 290 290 290 289 289 289 289 289 289 289 289 289 289 290 290 290 290 289 289 289 289 290 290
308 308 309 309 309 309 309 309 309 310 310 310 311 311 311 311 310 310 310 310 310 310 309 308 308 308 307 307 307 307 307 306 305 306 306 305 305 304 304 304 304 304 304 304 304 304 304 303 303 302 301 300 300 299 299 298 296 295 294 292 291 291 290 290 290 289 289 289 289 289 289 289 289 289 289 289 289 289 289 289 289 289 289 290 290 290
307 307 308 308 308 308 309 309 309 309 310 310 310 311 311 310 310 310 310 310 310 310 310 309 309 309 308 308 307 307 307 306 306 305 306 305 305 304 304 304 304 304 304 304 304 304 303 303 302 301 301 300 299 298 298 297 295 294 292 291 291 290 290 290 289 289 289 289 289 289 289 289 289 289 289 289 289 289 289 289 289 289 290 290 290 290
306 306 306 307 307 308 308 308 309 309 310 310 310 310 310 310 310 310 310 310 310 310 310 309 309 309 308 307 307 307 306 306 305 305 305 305 305 304 304 304 303 303 303 303 303 303 303 302 302 301 300 299 298 298 297 295 294 293 291 291 290 290 289 289 289 289 289 289 289 289 289 289 289 289 289 289 289 289 289 289 289 290 290 290 290 290
305 305 306 306 307 308 308 308 309 309 309 309 309 310 310 310 310 310 310 310 310 310 310 310 309 308 307 307 307 306 306 305 305 305 305 305 305 304 304 303 303 303 303 302 302 302 302 302 301 300 299 298 298 297 296 294 293 292 291 290 290 289 289 289 289 289 289 289 289 289 289 289 289 289 289 289 289 289 289 289 289 289 290 290 289 289
305 305 306 306 307 307 308 308 308 308 309 309 309 310 310 310 310 310 310 310 310 309 309 308 308 307 307 307 306 305 305 304 304 304 304 304 305 304 304 303 303 302 302 302 302 302 301 301 301 300 299 298 297 296 295 293 292 291 290 289 289 289 289 288 288 288 288 288 288 288 288 288 288 289 289 289 289 289 289 289 289 289 289 289 289 289
305 305 306 306 307 307 308 308 308 309 309 309 309 309 309 309 308 308 308 307 307 307 307 307 306 306 305 305 305 304 304 304 303 303 303 304 304 304 304 303 302 302 301 301 301 301 301 300 300 299 298 297 296 295 293 292 291 290 289 289 289 288 288 288 288 288 288 288 288 288 288 288 288 288 288 289 289 289 289 289 289 289 289 289 290 290
305 305 306 306 307 307 308 308 308 309 309 309 309 309 308 308 307 306 306 306 305 305 305 305 305 304 304 304 304 304 304 304 303 303 303 304 304 304 303 302 302 301 301 301 301 301 300 300 299 298 297 296 295 294 292 291 290 289 289 288 288 288 288 288 288 288 288 288 288 288 288 288 288 288 288 288 289 289 289 289 289 289 289 290 290 290
305 305 306 306 307 307 307 308 308 308 308 308 308 308 307 307 306 305 305 305 305 305 305 304 304 304 304 304 304 304 304 303 303 303 303 303 304 303 303 302 301 301 300 300 300 300 300 299 298 297 296 295 294 292 291 290 289 289 288 288 288 288 288 288 288 288 288 288 288 288 288 288 288 288 288 288 288 289 289 289 289 289 290 290 290 290
305 305 306 306 307 307 307 307 307 307 307 307 307 307 307 306 305 305 305 305 305 305 305 304 304 304 303 303 304 304 304 303 303 303 302 303 303 303 302 302 301 301 300 300 300 299 299 298 297 296 295 294 293 291 290 289 289 288 288 288 288 288 288 288 288 288 288 288 288 288 288 288 288 288 288 288 288 289 289 289 289 290 290 290 290 290
305 305 306 306 306 306 306 306 306 306 307 306 306 306 306 305 305 305 305 306 305 305 305 304 304 304 304 304 304 304 304 303 303 302 302 302 302 302 302 301 301 300 300 300 299 299 298 297 296 295 294 292 291 290 289 289 288 288 288 288 288 288 288 288 288 288 288 288 288 288 288 288 288 288 288 288 288 289 289 289 289 290 290 290 290 290
305 305 306 306 306 306 306 306 306 306 306 306 306 305 305 305 305 305 306 306 305 305 304 304 304 304 304 304 304 304 303 302 302 302 302 302 302 302 301 301 300 300 300 299 298 298 297 296 295 293 292 291 290 289 288 288 288 288 288 288 288 288 288 288 288 288 288 288 288 288 288 288 288 288 288 288 288 289 289 289 290 290 290 290 290 290
305 305 306 306 306 306 306 305 305 305 305 305 305 305 305 305 305 305 305 304 304 304 304 304 304 304 304 304 303 303 302 302 302 302 301 301 301 301 301 300 300 300 300 299 298 297 295 294 293 292 291 290 289 288 288 288 288 288 288 288 288 288 288 288 288 288 288 288 288 288 288 288 288 288 288 288 289 289 289 289 290 290 290 290 290 290
305 305 305 306 306 306 306 305 305 305 305 304 304 304 304 304 305 304 304 304 304 304 304 304 303 303 304 304 303 302 303 303 302 302 301 301 301 301 301 300 300 300 299 298 297 295 294 293 292 291 290 289 288 288 288 288 288 288 288 288 288 288 288 288 288 288 288 288 288 288 288 288 288 288 288 288 289 289 289 289 290 290 290 290 290 290
304 304 305 305 305 305 305 305 305 305 304 304 304 304 304 304 304 304 304 304 304 304 303 303 303 303 303 304 303 304 304 304 303 302 301 301 301 301 300 300 299 299 298 298 296 294 292 291 291 290 289 288 288 288 288 288 288 288 288 288 288 288 288 288 288 288 288 288 288 288 288 288 288 288 288 289 289 289 289 289 289 290 290 290 290 290
303 303 304 304 304 305 305 305 305 305 304 304 304 304 304 303 303 303 304 304 304 304 303 302 302 302 302 303 303 303 304 303 302 302 301 301 300 300 300 299 299 298 298 297 295 293 291 290 290 289 289 288 288 288 288 288 288 288 288 288 288 288 288 288 288 288 288 288 288 288 288 288 288 288 288 289 289 289 289 289 289 289 290 290 290 290
302 303 303 303 304 304 304 304 304 304 304 304 304 304 303 303 303 303 303 303 303 303 303 302 302 302 302 302 302 302 302 302 301 301 300 300 299 299 299 298 298 298 297 296 294 292 290 289 289 289 288 288 288 288 288 288 288 288 288 288 288 288 288 288 288 288 288 288 288 288 288 288 288 288 288 289 289 289 289 289 289 289 289 289 290 290
302 302 302 303 303 303 304 304 304 304 303 303 303 303 303 303 302 302 302 302 302 302 302 302 302 301 301 301 302 302 302 301 300 300 299 298 298 297 297 297 297 297 296 294 293 291 290 289 288 288 288 288 288 288 288 288 288 288 288 288 288 288 288 288 288 288 288 288 288 288 288 288 288 288 288 288 289 289 289 289 289 289 289 289 289 289
302 302 302 302 302 303 303 303 303 303 303 303 303 303 303 302 302 301 301 301 301 301 301 301 301 301 301 301 301 301 300 300 299 298 297 296 296 295 295 295 295 295 294 293 291 290 289 289 288 288 288 288 288 289 288 288 288 288 289 289 289 289 288 288 288 288 288 288 288 288 288 288 288 288 288 288 288 288 289 289 289 289 289 289 289 289
301 301 301 302 302 302 302 303 303 303 303 303 303 302 302 301 301 300 300 300 300 300 300 300 299 299 299 299 299 299 298 298 297 297 295 294 293 293 293 293 293 293 293 291 290 289 288 288 288 288 288 288 289 289 289 289 289 289 289 289 289 289 289 288 288 288 288 288 288 288 288 288 288 288 288 288 288 288 288 288 289 289 289 289 289 289
301 301 301 301 301 302 302 302 303 303 303 302 302 302 301 300 300 299 299 299 298 298 298 298 298 298 298 298 298 297 297 296 295 295 294 292 292 291 291 291 291 291 291 290 289 289 288 288 288 288 288 289 289 289 289 289 289 289 290 290 289 289 289 289 288 288 289 288 288 288 288 288 288 288 288 288 288 288 288 288 288 288 289 289 289 289
301 301 301 301 301 301 302 302 302 302 302 301 301 301 300 299 298 297 297 297 297 297 297 297 297 297 297 297 297 296 296 295 294 293 292 291 290 290 290 290 290 290 289 289 288 288 288 288 288 289 289 289 289 289 289 289 289 289 289 289 289 289 289 289 289 289 289 289 288 288 288 288 288 288 288 288 288 288 288 288 288 288 288 289 289 289
300 300 300 301 301 301 301 302 301 301 300 300 300 299 298 297 296 295 295 295 295 295 295 296 296 296 296 296 296 295 294 293 292 291 291 290 290 289 289 289 289 289 289 288 288 288 288 288 288 288 289 289 289 289 289 289 289 289 289 290 290 290 290 289 289 289 289 289 289 289 288 288 288 288 288 288 288 288 288 288 288 288 288 288 288 288
300 300 300 300 300 300 300 299 299 299 299 299 298 297 296 295 294 293 293 293 293 293 294 294 295 295 296 295 295 294 293 292 291 290 290 289 289 289 289 289 289 288 288 288 288 288 288 288 288 288 288 288 289 289 289 289 289 289 289 290 290 290 290 290 289 289 289 289 289 289 289 289 289 289 288 288 288 288 288 288 288 288 288 288 288 288
299 299 299 299 299 299 298 298 298 298 298 298 297 296 295 293 292 291 291 291 292 292 293 293 294 294 294 294 293 292 291 290 290 289 289 289 289 289 288 288 288 288 288 288 288 288 288 289 289 289 289 289 289 289 289 289 289 289 289 289 289 289 289 290 290 290 290 290 290 290 290 290 289 289 289 289 288 288 288 288 288 288 288 288 288 288
298 299 299 298 298 298 297 297 297 297 297 296 295 295 294 292 291 290 289 290 291 291 292 293 293 293 293 292 292 291 290 289 289 289 289 289 288 288 288 288 288 288 288 288 288 288 288 289 289 289 289 289 290 290 290 290 289 289 289 289 289 289 290 290 291 291 291 291 290 290 290 290 290 290 290 289 289 288 288 288 288 287 287 287 287 287
298 298 298 297 297 297 297 296 296 296 296 296 295 294 293 292 290 289 289 289 289 290 291 292 292 292 292 291 291 290 289 289 288 288 288 288 288 288 287 287 287 288 288 288 288 288 289 289 289 289 289 290 290 290 290 290 290 290 290 290 290 290 290 290 291 291 291 291 291 291 291 291 291 291 290 290 290 289 289 288 288 288 287 287 287 287
297 297 297 297 296 296 296 296 296 296 295 295 294 293 292 291 290 289 289 288 289 290 290 291 291 291 291 290 290 289 289 288 288 288 288 287 287 287 287 287 287 287 288 288 288 288 289 289 289 289 290 290 290 290 290 290 290 290 290 290 290 290 291 291 291 291 291 291 291 291 291 291 291 291 291 290 290 290 289 288 288 288 287 287 287 287
296 296 296 296 296 296 296 296 295 295 294 294 293 292 291 291 290 289 289 288 289 289 290 290 290 290 290 290 289 289 288 288 288 287 287 287 287 287 287 287 287 287 288 288 288 288 288 289 289 289 289 290 290 290 290 290 290 290 290 290 290 291 291 292 292 291 291 291 291 291 291 291 291 291 291 290 290 290 289 289 288 288 288 287 287 287
296 296 296 296 296 296 296 295 294 293 293 292 292 291 290 290 289 289 288 288 289 289 289 289 290 289 289 289 289 288 288 288 287 287 287 287 287 287 287 287 287 287 288 288 288 289 289 289 289 289 290 290 290 290 290 290 290 290 290 290 290 291 291 291 291 291 291 291 291 291 291 291 291 291 290 290 290 290 289 289 288 288 288 287 287 287
296 296 296 296 296 295 295 294 293 292 291 291 290 290 289 289 288 288 288 288 288 289 289 289 289 289 289 288 288 288 288 287 287 287 287 287 287 287 287 287 287 288 288 288 288 288 289 289 289 289 290 290 290 290 290 290 290 290 290 290 290 291 291 291 291 291 291 291 291 291 291 291 291 290 290 290 290 289 289 289 288 288 288 287 287 287
296 296 296 295 295 295 294 293 292 291 290 290 289 288 288 288 288 288 288 288 288 288 289 289 289 288 288 288 288 287 287 287 287 287 287 287 287 287 287 288 288 288 288 288 288 288 288 289 289 289 289 290 290 290 290 290 290 290 290 290 291 291 290 290 290 290 291 291 291 291 291 291 290 290 290 290 289 289 289 289 288 288 287 287 287 287
296 295 295 295 295 295 294 293 291 290 289 288 288 288 287 287 287 287 288 288 288 288 288 288 288 288 288 287 287 287 287 287 286 286 286 287 287 287 287 288 288 288 288 288 288 288 288 288 289 289 289 289 290 290 289 289 289 289 290 290 290 290 290 290 290 290 290 291 291 291 291 290 290 290 290 289 289 289 289 288 288 288 287 287 287 287
295 295 295 295 295 294 293 292 291 289 288 288 287 287 287 287 287 287 287 288 288 288 288 288 288 287 287 287 287 287 287 287 286 286 286 287 287 287 287 288 288 288 288 288 288 288 288 288 289 289 289 289 289 290 290 290 289 289 290 290 290 290 290 290 290 290 290 291 291 291 290 290 290 289 289 289 289 289 288 288 288 287 287 287 287 287
Wind_Speed
30 30 30 30 29 29 29 29 28 28 28 28 27 26 24 23 21 20 18 16 15 14 14 15 16 18 20 21 23 24 24 24 24 23 23 23 23 23 22 21 21 20 20 19 19 19 19 19 18 17 17 16 16 16 17 18 19 20 21 22 23 23 21 21 20 21 22 22 22 22 22 20 19 19 18 16 14 14 14 16 18 20 20 19 18 17
32 31 31 31 30 29 29 28 27 26 26 25 25 24 24 23 22 21 20 18 16 15 14 14 15 17 19 21 23 24 25 25 25 25 24 24 23 23 22 21 20 20 19 19 19 19 19 18 18 17 17 17 17 17 17 17 18 19 20 21 22 21 19 20 21 22 24 25 25 24 22 20 19 19 19 18 16 15 15 17 18 19 19 18 17 17
33 33 33 32 31 29 27 26 26 25 24 24 23 23 23 23 23 23 23 21 20 18 17 16 16 17 18 20 22 24 25 26 26 26 25 24 24 23 22 21 20 20 19 19 18 18 18 18 17 17 17 17 17 16 17 17 18 19 20 21 22 21 22 22 23 25 26 26 26 25 23 21 20 19 19 18 17 16 16 17 17 17 17 17 17 17
33 33 32 31 30 28 26 25 24 24 23 23 22 22 22 23 24 24 24 24 23 22 21 20 18 18 19 20 21 23 24 25 26 26 25 25 24 23 22 22 20 20 19 19 18 18 18 17 17 17 17 16 16 16 16 16 17 18 19 20 21 22 23 24 25 25 26 25 24 23 21 20 18 18 17 17 16 16 16 16 16 16 16 15 16 16
32 31 30 29 27 26 26 24 23 23 22 22 22 22 22 23 24 24 25 25 25 24 23 22 21 20 19 20 21 22 24 25 25 26 26 25 24 24 23 22 21 20 19 19 18 18 17 17 17 17 16 16 16 16 16 16 16 17 18 18 19 20 21 22 23 23 23 22 21 19 18 18 17 16 16 15 15 15 16 16 16 16 15 15 16 16
30 30 29 28 27 26 26 25 23 23 23 23 23 23 23 24 24 24 23 23 23 23 22 22 21 21 20 21 21 23 24 25 26 26 26 25 25 24 23 22 21 20 19 19 18 18 17 17 17 16 16 16 15 15 15 15 15 16 17 17 18 19 20 20 20 20 20 19 18 17 17 16 17 16 16 16 16 16 16 16 16 16 16 16 17 17
28 28 28 29 29 28 28 27 26 25 24 24 24 24 25 25 24 23 22 21 21 22 22 22 21 21 21 21 22 24 25 25 26 26 26 26 25 25 23 22 21 20 20 19 18 18 17 17 16 16 16 15 15 15 15 15 15 16 16 17 17 18 18 18 18 18 18 17 17 16 16 16 16 17 17 17 17 17 18 18 18 17 17 18 18 19
26 27 28 29 29 30 30 29 29 28 28 27 26 26 25 25 24 23 22 22 22 22 22 22 22 21 21 22 23 24 25 26 26 26 26 26 25 25 23 22 21 21 20 20 19 18 17 17 16 16 16 15 15 15 15 15 15 16 16 17 17 17 17 17 17 17 17 17 17 16 16 16 17 17 17 18 18 18 19 19 19 19 19 19 20 20
23 24 26 27 29 30 30 30 29 29 28 27 26 26 25 25 24 24 23 23 23 22 22 22 22 22 22 23 24 25 26 26 26 27 26 26 25 24 23 22 22 21 21 20 19 18 18 17 16 16 16 15 15 16 16 16 16 16 16 17 17 17 17 17 17 17 17 17 17 17 17 18 18 18 18 19 19 19 20 20 20 20 21 21 21 21
21 23 24 26 27 28 29 29 28 27 26 26 25 25 25 25 25 25 24 23 22 22 22 22 22 22 23 24 25 26 26 26 26 26 26 26 25 25 24 23 22 22 22 21 20 19 18 17 16 16 16 16 16 16 16 16 16 16 17 17 17 18 18 18 18 18 19 19 19 19 19 19 19 19 20 20 20 21 21 21 21 21 21 21 21 21
22 22 23 25 25 26 26 27 26 25 24 25 25 25 25 25 25 24 24 23 22 21 21 22 22 23 24 25 26 26 27 27 27 27 26 26 26 25 24 24 23 23 22 22 20 19 18 17 16 16 16 16 17 17 16 16 16 16 17 18 18 18 19 19 20 20 20 20 20 20 20 20 21 21 21 21 21 22 22 22 22 21 21 21 21 21
23 23 23 24 25 25 25 25 25 24 25 25 26 26 26 24 23 23 23 22 21 21 22 23 23 24 25 26 27 27 27 28 28 28 27 27 27 26 25 24 24 23 23 22 21 19 18 17 17 16 17 17 17 17 16 16 17 17 18 18 19 19 20 20 21 21 22 22 21 21 21 21 21 22 22 22 22 22 22 21 21 21 20 20 20 19
23 23 24 24 25 26 26 26 25 25 25 25 25 25 24 23 22 21 21 21 21 21 22 23 24 25 25 26 27 28 28 29 28 28 28 28 27 27 26 25 24 24 24 23 21 19 18 17 17 17 17 17 17 17 17 17 17 18 18 19 19 20 20 21 21 22 22 22 22 21 21 21 22 22 22 22 21 21 21 20 19 19 19 18 18 18
23 23 24 25 26 26 26 26 25 25 24 24 23 22 21 21 20 20 20 20 21 21 22 23 25 26 27 27 28 29 29 29 29 29 29 28 28 27 27 26 25 25 24 23 21 19 18 17 17 17 17 17 17 17 17 17 17 18 19 19 20 20 21 21 21 22 22 21 21 21 21 21 21 21 21 20 20 19 19 18 17 17 17 17 17 17
23 24 25 26 27 27 26 26 25 25 24 22 21 21 20 20 19 19 20 20 21 21 22 23 25 26 28 29 30 30 30 30 30 30 30 29 28 28 27 27 26 25 24 23 21 19 18 17 17 17 18 18 17 17 17 17 18 18 19 19 20 20 20 21 21 21 21 20 20 19 19 19 19 19 19 19 18 17 17 16 16 16 16 16 16 16
24 25 27 27 28 27 26 26 25 25 24 23 22 22 21 20 19 18 19 20 20 21 22 24 26 28 29 30 31 31 31 31 31 30 30 30 29 28 28 27 26 25 24 22 21 19 18 17 17 17 18 17 17 17 17 17 17 18 18 19 19 20 20 20 20 19 19 18 18 18 18 18 18 18 17 17 16 15 15 14 14 14 15 15 15 15
25 26 27 27 28 27 26 25 25 24 24 24 24 23 22 21 19 18 18 19 20 21 22 24 26 29 31 31 32 33 33 32 31 31 30 30 29 28 28 27 26 25 24 22 21 20 19 18 17 17 17 17 17 17 17 17 17 17 18 18 18 19 19 19 18 18 17 17 16 16 16 16 16 16 15 15 14 14 13 13 13 14 14 14 14 14
25 26 26 27 27 26 26 25 24 24 24 24 24 24 23 22 21 20 20 20 20 21 22 23 25 28 31 33 33 32 33 33 32 31 31 31 30 28 28 26 25 24 23 23 22 21 19 18 17 17 17 17 17 17 17 17 17 17 17 17 18 18 18 17 17 16 16 15 15 15 15 15 14 14 14 13 13 13 13 12 13 13 13 13 13 13
25 25 26 26 26 26 25 25 24 24 23 23 23 23 23 23 22 21 21 21 21 21 21 22 23 25 28 31 32 31 31 31 31 30 31 31 30 28 27 26 25 24 24 23 22 21 20 19 18 17 17 17 17 17 17 17 17 17 17 17 17 17 16 16 16 15 15 14 14 14 14 14 13 13 13 12 12 12 12 12 12 12 13 13 13 12
25 26 26 26 26 26 26 26 25 24 23 23 23 23 23 23 23 23 22 22 21 21 21 21 22 23 24 27 28 29 29 30 30 30 30 30 29 28 27 26 25 24 24 23 23 22 21 19 18 17 17 17 17 17 17 17 17 17 17 16 16 16 15 15 15 14 14 14 13 13 13 13 13 12 12 12 12 12 12 12 12 12 12 12 12 12
26 26 26 25 25 26 27 26 25 24 23 23 23 23 23 23 24 24 23 23 23 22 22 22 22 22 23 25 26 27 28 29 29 29 29 29 28 28 27 26 25 24 24 24 24 23 21 20 18 18 17 18 18 18 18 17 17 17 16 16 15 15 14 14 14 13 13 13 13 13 13 12 12 12 12 12 12 12 12 12 12 12 12 12 12 12
26 26 25 24 24 25 26 25 24 23 23 23 23 23 23 24 24 24 24 24 23 23 23 23 23 23 23 24 24 25 26 27 27 27 27 27 27 27 26 25 24 24 24 25 24 24 22 20 19 18 18 18 18 18 18 18 17 17 16 16 15 14 14 13 13 13 13 13 13 12 12 12 12 12 12 12 12 12 12 12 12 11 11 11 11 12
26 25 24 24 24 24 25 24 24 23 23 23 23 23 23 23 23 23 23 23 22 23 23 23 23 23 23 24 24 24 24 24 24 24 25 26 26 25 25 24 24 24 24 25 25 24 22 20 19 19 18 19 19 19 18 18 17 17 16 15 14 14 13 13 13 13 13 12 12 12 12 12 12 12 12 12 11 11 11 11 11 11 11 11 11 12
26 25 24 24 25 25 24 24 24 23 23 22 22 22 22 22 22 21 21 21 21 21 21 21 22 23 23 24 24 24 24 23 23 22 23 24 24 24 24 23 23 24 24 24 24 23 22 21 20 19 19 19 19 19 18 18 17 16 16 15 14 13 13 13 12 12 12 12 12 12 12 12 12 12 11 11 11 11 11 11 11 11 11 11 11 11
26 25 25 25 25 25 25 24 24 23 22 22 21 21 21 21 20 20 20 20 20 20 20 21 22 23 24 24 24 24 24 23 23 22 22 22 23 23 23 23 23 23 23 23 23 22 21 21 20 19 19 19 19 19 18 18 17 16 15 15 14 13 13 12 12 12 12 12 12 12 11 11 12 11 11 11 11 11 11 11 11 11 11 11 11 11
26 25 25 26 26 25 25 24 24 23 22 21 21 21 20 20 19 19 20 21 21 21 21 22 23 24 24 24 25 25 24 24 23 22 22 22 22 23 23 23 22 22 22 23 23 22 21 20 20 19 19 19 19 19 18 17 17 16 15 14 14 13 13 12 12 12 12 12 12 11 11 11 11 11 11 11 11 11 11 11 11 11 11 11 11 11
26 26 26 26 26 26 25 25 24 23 22 22 21 21 21 20 20 21 22 22 22 22 22 23 24 24 25 25 26 26 25 24 23 23 23 22 22 23 23 23 22 22 22 22 22 21 20 20 20 19 19 19 19 18 18 17 16 16 15 14 13 13 13 12 12 12 12 12 11 11 11 11 11 12 11 11 11 11 11 11 11 11 11 11 10 10
26 26 26 26 26 26 26 25 24 24 23 22 22 22 22 22 22 23 24 24 23 22 22 23 24 25 26 27 26 26 25 25 24 24 24 23 23 23 24 23 22 22 22 22 21 21 20 20 20 19 19 19 18 18 17 17 16 15 14 14 13 13 13 12 12 12 12 11 11 11 11 11 12 11 11 11 11 11 11 11 11 11 11 11 10 10
26 26 26 26 26 26 26 26 25 24 24 23 23 23 24 24 24 24 24 24 23 23 23 24 25 26 26 26 26 26 26 26 26 25 24 23 23 24 24 23 22 22 22 21 21 21 21 21 20 19 19 18 18 18 17 16 16 15 14 14 13 13 13 13 12 12 11 11 11 11 11 12 12 11 11 11 11 11 11 11 11 11 11 11 11 11
26 26 27 27 26 26 26 26 26 25 25 24 24 25 25 25 25 24 24 24 23 23 23 24 25 26 27 27 27 27 28 27 27 26 25 24 24 24 24 24 23 22 21 21 21 21 21 21 20 19 18 18 18 17 17 16 15 15 14 14 14 13 13 12 12 12 11 11 11 12 12 12 12 12 11 11 11 11 11 11 11 11 11 11 11 11
26 27 27 27 27 26 26 26 26 25 25 25 25 25 26 25 25 25 24 24 24 23 23 24 25 27 27 28 28 29 29 28 27 26 26 25 25 25 25 24 23 22 21 21 21 21 21 21 20 19 18 18 17 17 17 16 15 15 14 14 14 13 13 12 12 12 11 12 12 12 12 12 12 12 12 12 12 12 12 12 12 12 11 11 11 11
27 27 27 27 27 26 26 26 26 26 26 26 26 26 26 25 25 25 25 25 24 23 23 23 25 26 27 27 27 28 28 26 25 25 24 24 25 25 25 24 23 22 21 21 21 21 19 20 20 19 18 17 17 17 16 16 15 15 14 14 13 13 12 12 12 12 12 12 12 12 12 12 12 12 12 12 12 12 12 12 12 12 12 12 12 12
27 27 27 27 27 27 27 26 26 26 26 26 26 25 25 25 25 25 25 25 24 23 23 23 24 25 25 25 25 25 25 23 23 22 22 23 24 25 24 24 23 22 22 21 21 21 20 20 19 18 17 17 17 16 16 15 15 15 14 14 13 13 12 12 12 12 12 12 13 13 13 12 12 12 12 13 12 12 12 13 12 12 12 12 12 12
28 28 28 28 27 27 27 27 26 26 26 26 26 25 25 24 24 24 24 24 23 23 22 22 23 23 23 23 23 23 22 20 20 20 20 21 23 24 24 23 23 23 22 22 22 22 22 20 19 17 17 17 16 16 16 16 15 15 14 14 13 13 12 12 12 13 13 13 13 13 13 13 13 13 13 13 13 13 13 13 13 13 13 13 13 13
28 28 28 28 28 27 27 27 27 27 26 26 26 25 24 24 24 23 23 23 22 22 21 22 22 22 22 22 22 22 21 18 18 18 19 21 22 22 22 23 23 23 23 22 22 22 21 20 18 17 16 16 17 16 16 16 15 15 14 14 13 13 13 13 13 13 13 13 13 13 13 13 13 13 13 13 13 14 14 14 14 14 14 14 14 14
29 29 29 28 28 27 27 27 27 27 26 26 26 25 24 24 24 23 23 22 22 21 21 21 21 21 21 21 21 20 18 17 16 17 19 20 20 20 21 21 21 22 22 22 22 21 20 19 18 17 16 17 17 17 16 16 15 15 14 14 13 13 13 13 13 13 13 13 13 13 13 13 13 13 13 14 14 14 14 15 15 15 15 15 15 15
29 29 29 28 28 27 27 27 27 26 26 26 25 25 24 24 24 24 23 23 22 22 21 21 21 20 20 20 20 18 17 16 16 18 18 19 19 19 19 20 20 21 21 21 21 20 19 18 18 17 17 17 17 17 16 16 15 15 14 14 13 13 13 13 13 13 13 13 13 13 13 13 13 13 14 14 14 15 15 15 15 15 15 15 15 15
29 29 29 28 27 27 27 26 26 26 26 26 26 25 25 25 24 24 23 23 23 22 22 21 21 21 20 20 19 19 18 17 18 18 19 19 19 18 18 19 19 20 20 20 20 19 19 18 18 18 18 17 17 16 16 16 15 15 14 14 13 13 13 13 13 13 13 12 13 13 13 13 14 14 14 14 15 15 15 15 16 16 16 16 16 15
30 29 29 28 27 27 26 26 26 25 25 25 25 25 25 25 24 24 24 23 23 23 22 22 21 21 21 21 20 20 19 19 19 19 19 19 19 18 18 18 19 19 19 19 19 19 18 18 17 17 17 17 16 16 16 15 15 15 14 14 14 13 13 13 13 13 13 12 12 13 13 13 13 14 14 14 15 15 15 15 16 16 16 16 16 15
31 30 29 28 27 26 25 25 25 25 25 25 25 25 25 25 25 24 24 24 23 23 22 22 22 22 22 21 21 21 20 20 20 20 20 19 19 19 18 18 19 19 19 20 19 19 18 18 17 16 16 16 16 16 16 16 16 15 15 15 14 13 12 12 12 12 12 12 12 13 13 13 13 13 14 14 14 15 15 15 16 16 16 16 16 15
32 30 29 28 27 26 25 25 25 25 25 25 25 25 25 25 25 24 24 24 24 23 23 23 23 23 23 22 22 21 21 20 20 20 20 20 19 19 19 19 19 19 19 20 19 19 19 18 17 17 16 16 16 16 16 16 16 16 15 15 14 12 12 12 12 12 12 12 12 12 12 12 12 13 13 13 14 15 15 16 16 16 16 16 16 16
32 31 29 28 26 26 25 25 25 25 25 25 25 25 25 25 24 24 24 24 24 24 24 24 24 24 23 23 22 22 21 21 21 21 20 20 19 19 19 19 19 19 19 19 19 19 18 18 18 17 17 17 17 16 16 16 16 16 15 14 13 12 12 12 12 12 12 12 12 11 11 12 12 12 12 13 13 14 15 15 16 16 16 16 16 16
32 30 29 27 26 26 26 26 25 25 25 25 25 25 24 24 24 24 24 24 25 25 25 25 25 24 24 23 23 22 22 21 21 21 20 20 19 19 19 19 19 19 19 19 19 19 18 18 18 18 17 17 17 16 16 16 16 16 15 14 14 13 13 13 12 11 11 11 11 11 11 11 11 11 12 12 12 13 14 14 15 15 16 16 16 16
32 30 28 27 26 26 26 25 25 25 25 24 24 24 24 24 23 23 24 24 25 25 25 25 25 25 24 24 23 23 22 22 22 21 21 20 20 19 19 19 19 19 19 19 19 19 18 18 18 18 17 17 16 16 15 15 15 15 15 14 14 14 13 12 12 12 12 11 11 11 11 11 11 11 11 11 11 12 12 13 14 14 15 15 15 16
31 29 28 27 26 26 25 25 25 24 24 24 24 24 23 23 23 24 24 25 25 26 26 26 25 25 24 24 24 23 23 22 22 22 21 21 20 20 19 19 19 19 19 19 19 18 18 18 17 17 17 16 16 15 15 14 15 15 14 14 14 13 13 12 12 12 12 12 12 12 12 11 11 11 11 11 11 11 12 12 13 13 14 15 15 16
31 30 28 27 26 25 25 24 24 24 24 23 23 23 23 23 24 24 25 25 26 26 26 25 25 25 25 25 24 24 23 23 23 22 22 21 20 20 20 20 20 20 20 19 19 19 18 18 18 17 17 16 16 15 15 14 14 14 14 14 13 13 13 13 13 13 12 12 12 12 12 11 11 11 11 11 11 11 11 12 12 13 13 14 14 15
32 30 28 27 25 24 24 24 24 24 23 23 23 23 23 24 24 25 25 26 26 26 26 25 25 25 25 24 24 24 24 24 23 23 22 22 21 21 21 20 20 20 20 19 19 19 18 18 18 17 17 16 16 15 14 14 14 14 14 14 13 14 14 14 14 13 12 12 11 11 11 11 11 11 11 11 11 11 11 11 12 12 13 13 14 14
32 30 28 26 25 24 24 24 24 24 24 24 23 23 24 24 24 25 26 26 26 26 26 26 25 25 25 24 23 23 23 23 23 23 23 22 21 21 21 21 20 20 19 19 18 18 18 18 17 17 16 16 15 15 14 14 14 14 14 14 14 14 14 14 14 13 12 12 11 11 11 11 11 11 11 11 11 11 11 11 11 12 12 13 13 14
32 30 28 26 25 24 24 24 23 23 24 24 24 24 24 24 25 25 26 26 26 26 26 26 26 25 25 24 23 23 23 23 23 23 22 22 21 21 21 20 20 19 19 18 18 17 17 17 17 16 16 15 15 14 14 14 14 14 14 14 15 15 14 14 14 13 13 12 11 11 11 11 11 11 11 11 11 11 11 11 11 11 12 12 13 14
32 30 28 27 25 24 24 23 23 23 24 24 24 24 25 25 26 26 26 26 26 26 26 26 25 25 25 24 24 23 23 23 23 23 23 22 21 21 21 20 20 19 19 18 18 18 17 17 17 16 16 15 15 15 14 14 14 15 15 15 15 15 15 14 14 13 13 12 11 11 11 10 11 11 11 11 11 10 10 10 10 11 11 12 12 13
33 31 29 27 26 24 23 22 22 23 24 24 24 25 25 26 26 27 27 26 26 26 25 25 25 24 24 24 24 24 24 24 24 23 23 22 22 21 21 20 20 20 19 19 19 18 18 18 17 17 16 16 15 15 15 15 15 15 15 15 15 15 15 14 14 13 13 12 11 11 10 10 10 11 11 11 10 10 10 10 10 10 11 11 11 12
Wind_Direction
286 283 280 277 274 271 272 273 273 271 271 271 271 271 270 270 270 270 269 266 261 257 253 250 248 246 243 240 239 240 243 247 250 251 251 252 252 252 253 254 255 256 257 257 256 255 254 254 254 254 254 253 252 252 250 248 245 242 239 235 234 234 235 235 237 241 243 242 239 235 234 233 235 240 247 253 256 256 255 255 258 260 262 260 256 251
283 280 277 274 272 271 272 273 273 272 271 271 270 269 268 267 266 266 267 267 265 262 259 257 253 250 246 241 238 237 240 244 248 251 252 252 252 252 253 254 255 256 257 257 256 255 254 254 254 253 253 252 251 250 249 248 246 243 240 238 235 231 225 224 227 232 238 242 243 243 243 245 246 249 253 257 259 259 258 258 260 263 266 266 262 257
280 278 276 275 273 273 273 274 274 273 272 271 270 269 266 264 263 264 266 269 270 270 269 267 263 257 252 246 241 239 239 242 245 248 250 251 252 252 253 254 255 256 257 257 257 256 255 254 254 253 252 251 250 249 248 247 245 243 242 240 238 234 230 229 231 236 241 245 248 249 252 254 256 256 257 259 261 262 262 262 263 265 266 266 264 260
276 275 275 275 275 275 274 274 273 272 271 270 268 267 265 262 262 263 265 269 272 273 273 271 269 264 258 251 246 243 242 242 243 245 248 249 250 251 252 254 255 256 257 258 258 257 256 255 254 253 252 251 250 248 247 245 244 243 243 243 241 240 240 241 243 246 249 252 253 254 255 256 256 257 258 259 261 262 262 263 263 263 262 260 258 255
274 273 273 273 273 272 272 271 270 268 267 266 265 265 264 263 263 264 266 269 271 272 272 271 269 266 261 254 249 245 243 242 243 244 246 247 249 250 252 253 254 256 257 258 258 258 256 255 254 252 251 250 249 247 246 244 242 242 242 243 243 243 244 247 249 251 254 254 254 253 252 252 252 254 255 257 258 259 260 260 260 259 257 255 252 250
272 271 270 268 267 267 266 266 265 264 264 263 264 264 266 267 268 268 269 270 270 269 268 267 265 262 258 253 248 244 243 242 242 243 245 246 248 249 251 252 254 256 257 259 259 258 257 255 253 251 249 248 247 246 244 242 241 240 240 241 243 244 245 246 248 250 251 252 251 250 249 249 250 251 253 255 256 257 258 258 257 256 255 253 251 248
270 269 268 265 264 263 263 263 263 263 263 264 265 267 268 270 271 271 270 269 268 266 264 262 260 257 254 249 245 242 241 241 242 243 244 246 247 249 251 252 254 256 258 259 259 259 257 255 252 249 247 245 244 242 240 239 239 238 239 240 241 243 244 244 245 246 248 249 249 250 250 250 250 251 253 254 255 256 257 257 256 255 255 253 252 250
268 268 267 265 264 263 263 263 263 264 264 266 267 269 270 271 271 271 270 269 267 265 261 258 255 252 249 245 242 240 239 240 241 243 244 246 248 250 252 253 255 257 259 259 259 258 256 254 251 248 244 242 240 238 237 237 237 237 238 239 240 241 242 243 244 245 247 248 250 251 252 252 253 253 254 254 255 256 256 257 256 256 255 254 252 251
266 267 267 267 266 266 266 266 265 265 266 267 269 270 271 272 272 271 271 270 267 263 259 254 250 247 245 243 241 240 240 241 242 244 245 247 248 250 252 254 256 258 259 260 259 258 256 253 250 246 242 238 236 235 235 236 236 238 239 240 241 242 243 244 246 247 249 250 252 253 254 255 255 255 255 256 256 256 257 257 257 256 255 254 252 251
262 263 265 267 268 268 268 268 267 267 267 269 270 271 271 272 272 272 271 270 266 262 256 251 246 243 241 241 241 241 241 242 243 245 246 248 249 251 252 254 256 258 259 259 258 257 255 252 249 244 239 236 234 234 235 236 237 239 240 242 243 244 246 248 249 251 252 254 255 256 256 257 257 257 257 257 257 257 257 257 257 256 255 254 252 250
259 259 261 263 265 266 267 267 268 269 269 270 271 271 271 270 270 270 269 267 263 258 253 248 244 241 238 238 239 240 241 241 243 244 246 247 249 250 251 253 255 257 258 259 258 256 254 251 247 242 237 235 235 235 235 236 238 240 242 244 246 247 249 251 253 254 255 256 257 257 258 258 258 258 258 257 257 257 257 256 256 255 254 253 251 249
257 257 257 259 261 263 264 266 267 268 268 268 268 269 269 269 268 267 265 264 261 255 250 245 242 239 238 237 239 240 240 241 241 243 244 246 248 249 251 252 254 256 258 258 257 255 253 249 245 240 237 236 236 236 236 237 239 241 243 246 248 251 253 255 256 257 257 258 258 258 258 258 258 258 257 257 257 256 256 255 255 253 252 250 248 246
254 255 255 257 258 260 262 264 266 266 266 266 267 268 268 268 266 265 264 261 258 254 249 244 240 238 238 238 239 239 240 240 241 243 244 245 247 248 250 252 254 255 257 257 257 255 252 248 244 240 238 237 237 237 237 238 240 242 245 248 251 254 256 257 258 258 258 257 257 257 257 257 256 256 256 256 255 255 254 253 252 250 248 246 244 241
253 255 256 258 258 259 260 262 263 264 265 267 268 269 269 267 264 262 261 259 255 251 248 244 239 236 236 236 237 238 239 240 241 242 243 245 247 248 250 251 253 255 256 256 256 255 252 248 244 241 240 239 238 238 238 239 241 245 248 251 254 256 257 258 258 258 257 256 255 255 255 254 254 254 254 254 254 253 252 250 248 246 243 241 239 237
253 256 258 259 259 259 259 260 262 264 266 268 270 269 267 263 260 258 258 256 253 249 245 241 238 236 234 233 234 236 236 237 239 240 242 244 246 248 249 250 252 253 254 255 254 254 252 249 245 243 242 241 240 239 239 241 244 247 251 254 256 257 258 258 257 256 255 254 253 252 252 251 251 251 251 251 251 250 248 246 243 240 238 236 234 232
254 256 258 259 259 259 259 259 260 262 265 267 268 267 265 262 259 257 256 255 253 249 243 238 234 232 231 232 233 234 234 235 237 239 240 242 244 247 248 249 251 252 252 252 252 252 250 248 246 244 243 243 242 242 242 244 247 251 254 256 258 258 258 257 255 254 252 251 250 249 248 247 247 247 247 247 247 245 243 241 238 235 233 231 230 229
254 257 258 259 259 260 260 260 260 261 262 263 264 265 264 262 260 258 257 257 255 251 245 240 234 229 228 229 231 232 233 233 235 237 239 241 243 245 247 248 250 251 251 251 250 250 249 247 245 245 244 244 244 244 246 248 251 254 257 258 259 259 258 256 254 252 250 249 247 246 244 244 244 244 244 243 242 241 238 235 232 230 229 227 227 226
253 255 257 259 260 261 261 261 261 260 260 260 261 262 262 260 258 257 257 257 255 253 250 246 240 234 231 228 228 231 233 232 233 235 238 240 242 244 246 247 248 250 250 250 250 249 248 246 245 244 244 246 247 248 250 252 254 256 258 258 259 258 257 255 253 251 249 247 245 243 241 241 240 240 240 239 238 236 233 231 228 226 226 225 224 224
250 253 255 258 260 261 262 262 262 260 259 259 259 260 259 258 256 255 255 256 256 255 253 250 247 243 239 234 233 233 234 232 232 234 236 239 241 243 244 245 246 247 249 249 250 250 249 246 244 243 244 246 249 251 254 256 258 258 259 258 257 256 255 253 251 249 247 245 243 241 239 238 238 238 237 236 235 233 230 228 226 225 224 224 223 223
249 251 253 255 258 261 262 262 261 260 260 259 258 258 257 256 255 254 254 255 256 257 257 255 252 250 245 241 238 236 235 233 232 233 236 239 241 242 243 244 244 246 247 248 250 250 249 247 244 243 244 247 250 253 256 258 260 260 259 258 256 254 252 251 249 247 245 243 241 239 237 236 236 235 235 233 232 230 228 226 225 224 224 224 223 223
249 251 253 255 257 259 260 261 260 260 259 258 257 256 255 255 254 253 253 253 254 254 254 253 252 251 247 244 240 237 235 233 232 233 236 239 240 241 242 242 243 244 246 247 249 250 250 248 245 244 245 247 251 254 257 259 260 260 259 258 255 253 251 249 247 245 242 240 238 237 236 235 234 233 232 231 230 228 227 226 225 224 224 223 223 223
252 254 255 256 256 257 258 260 260 260 258 256 255 254 254 253 253 253 253 253 253 252 251 249 248 247 245 243 241 239 236 235 234 235 237 239 239 239 240 240 242 243 245 246 248 249 249 247 246 245 246 248 251 254 257 259 259 259 258 257 254 252 249 247 244 242 240 238 236 235 234 233 233 232 231 229 228 227 226 225 225 225 224 223 223 222
253 255 255 255 254 255 256 257 258 258 256 254 253 253 253 254 255 256 257 257 255 253 251 249 247 246 244 242 240 238 236 234 234 235 236 238 239 238 238 238 239 241 243 245 247 247 247 246 245 244 246 248 251 254 256 258 258 258 257 255 253 250 247 244 241 239 237 236 234 234 233 232 231 230 229 228 227 226 225 225 224 224 223 222 222 222
252 253 252 251 252 252 253 255 255 256 255 254 253 252 253 253 254 254 255 254 253 252 251 250 248 245 242 241 239 237 235 234 232 231 232 236 238 238 236 236 237 238 241 244 245 246 245 244 243 244 245 248 251 254 256 256 256 256 254 252 250 247 243 240 238 236 234 233 233 232 231 231 230 228 227 226 225 224 224 223 223 223 222 221 221 221
250 249 249 248 249 250 252 253 254 255 254 253 252 251 251 250 250 248 247 246 246 245 245 244 242 240 239 239 238 237 236 235 232 230 230 233 236 237 236 236 236 237 239 242 243 244 243 243 242 243 244 247 250 253 254 255 254 253 252 250 246 243 239 237 234 233 232 232 231 231 230 229 228 226 225 223 222 222 222 222 222 221 221 220 220 220
247 246 246 246 247 249 251 252 253 253 252 251 249 249 248 247 246 244 242 241 240 239 239 239 238 238 239 239 238 237 237 236 234 232 231 232 235 236 236 237 236 236 238 241 242 242 242 242 242 242 244 246 249 251 252 252 252 251 249 246 243 239 236 233 231 230 230 230 229 229 228 227 226 224 223 221 221 220 220 220 221 221 220 220 220 219
243 243 243 244 245 247 248 250 250 250 249 248 247 247 246 245 243 241 240 239 239 238 236 236 236 237 238 237 238 238 238 236 235 233 233 233 235 237 237 237 237 236 237 239 241 242 242 243 243 243 243 245 247 249 249 249 249 247 245 242 238 235 232 230 229 228 228 228 227 227 226 225 224 222 221 220 219 219 220 220 220 221 221 220 219 219
241 241 241 242 243 244 245 246 247 247 247 246 246 245 244 243 242 241 241 241 241 239 238 237 237 237 237 237 238 238 237 236 234 233 233 233 234 237 238 238 237 237 237 238 240 241 242 243 242 242 242 243 244 245 246 245 244 242 240 237 234 231 229 227 227 227 227 226 226 225 225 223 222 220 219 218 218 219 220 220 221 221 221 220 220 220
240 240 240 240 240 241 242 243 244 244 245 245 245 245 245 244 243 244 244 244 243 241 240 240 240 240 240 241 240 239 237 235 233 233 233 231 233 236 238 237 237 236 236 236 238 240 241 242 241 240 239 240 241 241 241 240 238 236 235 232 230 228 226 225 225 225 225 225 224 224 223 221 220 219 218 218 218 219 220 221 221 221 221 220 220 220
239 239 239 238 238 238 239 241 242 242 243 243 244 244 245 245 244 244 244 244 243 242 241 242 242 242 242 241 239 236 234 234 233 232 232 230 231 234 236 236 236 236 235 234 236 238 240 241 240 238 237 237 237 237 236 235 233 231 230 228 227 226 224 224 224 224 224 223 223 222 221 220 218 217 217 218 219 221 222 223 223 223 222 222 221 222
241 240 239 238 237 237 238 239 240 241 241 242 242 243 244 244 243 241 241 240 240 240 241 241 241 241 242 240 237 235 235 233 232 232 231 230 232 236 236 235 235 236 235 234 234 237 240 241 239 236 234 233 232 232 231 230 229 227 226 225 224 223 223 223 224 223 223 222 221 220 219 218 217 217 218 219 220 222 224 225 226 226 225 224 225 225
242 241 239 238 237 236 237 237 238 239 240 240 241 241 242 242 241 240 239 238 238 238 238 239 240 241 243 242 242 241 241 238 234 233 232 231 234 237 237 236 236 236 235 235 235 236 239 240 238 234 231 229 228 228 227 225 224 223 223 222 222 222 222 222 223 222 222 221 220 219 218 218 217 217 218 220 221 224 225 227 229 229 229 229 229 230
241 240 239 238 237 236 236 236 237 237 237 238 239 240 241 241 241 240 239 238 238 237 236 236 238 240 241 243 244 245 246 242 238 235 235 234 235 236 237 236 235 234 234 234 234 235 236 238 238 234 229 226 225 224 223 221 221 220 220 220 220 220 220 221 222 221 221 220 220 219 219 218 219 219 220 221 223 225 227 229 231 232 233 233 232 233
240 239 238 237 236 235 235 235 235 235 236 236 237 238 239 240 240 240 240 239 239 238 237 236 236 237 239 240 241 242 242 241 238 237 237 238 237 237 237 235 233 232 231 231 232 233 234 235 235 232 228 224 222 221 219 218 218 219 219 219 219 219 219 220 221 221 220 220 220 220 220 220 220 221 222 223 224 226 227 229 231 233 234 235 235 234
239 238 237 236 234 234 233 233 233 234 235 236 236 237 238 238 238 239 239 239 239 238 237 237 236 237 238 239 241 241 241 239 237 237 238 238 239 238 237 235 232 230 229 230 230 231 231 231 230 228 225 221 218 217 216 216 216 217 218 218 218 218 218 219 220 220 220 220 220 221 222 222 222 223 224 224 225 226 228 229 231 233 234 235 235 235
239 238 236 235 233 232 232 231 232 233 234 236 237 237 237 237 237 237 238 239 239 238 237 236 236 236 237 239 241 244 244 243 240 238 238 238 238 237 235 233 230 228 228 228 229 229 229 227 225 222 220 219 216 214 213 213 214 216 217 216 216 216 215 216 218 219 219 219 220 221 222 223 224 224 225 226 226 227 228 229 230 232 233 234 235 235
238 237 236 235 233 232 231 231 231 232 234 236 237 237 237 236 236 236 237 237 237 237 236 235 235 235 236 238 239 240 241 240 238 237 237 237 236 234 231 229 226 225 225 226 227 227 227 225 221 218 216 216 215 214 212 212 213 215 216 215 215 214 213 214 216 217 218 219 219 220 222 223 224 225 225 226 227 227 228 229 230 231 233 234 235 235
236 236 236 235 234 233 232 232 232 232 234 236 237 237 237 237 236 235 235 235 235 235 234 234 234 234 235 236 237 237 236 234 234 234 234 233 232 230 226 224 221 220 221 224 225 226 224 222 219 215 213 213 213 212 211 212 213 215 216 215 214 213 212 212 214 216 218 218 219 220 222 224 224 225 225 226 227 228 228 229 230 231 233 234 235 236
235 235 235 235 235 234 234 233 233 234 235 235 236 237 237 236 235 235 234 234 233 233 232 232 232 232 233 234 234 235 234 233 232 231 231 230 228 225 222 218 216 215 217 219 221 222 222 221 219 216 214 213 212 210 209 211 213 215 215 215 214 212 210 210 212 215 217 219 220 221 223 224 225 226 227 227 228 229 230 231 231 232 233 234 235 236
234 234 235 236 237 237 236 236 236 235 235 235 236 236 236 235 233 232 232 231 231 230 230 229 229 229 230 231 232 232 233 232 231 230 229 227 224 221 218 215 213 212 213 215 216 217 217 217 216 216 215 216 214 211 209 210 211 213 214 215 216 214 211 211 213 215 217 219 221 223 224 226 227 228 228 229 230 231 232 233 234 235 236 237 238 239
234 234 235 236 237 238 237 237 236 236 235 235 235 235 234 233 231 230 229 229 228 228 227 226 226 226 227 228 230 230 230 230 229 228 226 224 222 218 215 213 211 210 211 213 214 214 214 213 213 212 213 214 213 211 209 209 210 212 214 215 216 215 214 214 214 216 218 220 222 225 227 228 229 230 230 231 232 232 234 235 236 238 239 240 240 241
234 234 235 236 236 236 235 235 234 235 235 235 235 234 233 232 230 229 228 227 226 225 225 224 224 224 225 226 227 228 228 227 226 225 224 222 219 216 213 211 209 209 209 210 211 212 212 212 211 211 211 211 211 209 206 206 208 211 212 213 213 214 216 217 217 217 220 222 224 227 230 231 232 233 233 233 233 233 235 236 238 239 240 241 242 242
235 235 235 235 234 234 234 234 234 234 234 234 234 233 232 231 229 228 227 226 225 224 224 223 223 223 223 223 224 224 224 223 223 222 220 219 216 213 211 209 208 207 207 208 209 209 210 210 211 212 212 212 211 209 205 203 206 209 210 211 211 214 218 220 220 222 224 225 228 230 233 235 237 237 237 237 236 236 236 237 239 240 241 241 241 241
236 235 234 233 233 234 234 234 234 234 234 233 232 231 230 228 227 226 225 225 225 224 223 223 222 222 222 222 222 222 221 220 219 218 217 215 212 210 208 207 206 206 206 206 207 208 208 209 211 212 212 212 212 210 207 204 205 207 210 211 213 215 219 221 223 225 227 229 231 234 237 239 241 242 242 242 241 239 239 239 240 240 241 241 240 240
236 234 233 232 232 232 231 232 233 234 234 233 231 229 227 226 224 223 223 223 222 222 222 222 221 220 220 220 220 219 218 217 216 215 213 211 208 206 205 204 204 204 205 205 206 207 208 210 212 212 212 213 213 212 210 208 207 208 211 213 215 217 221 223 225 225 226 229 232 236 239 242 245 246 247 247 245 244 242 242 241 241 240 240 239 239
234 234 233 232 232 231 232 233 233 233 232 231 229 227 226 224 223 222 221 221 220 220 220 220 220 219 219 218 218 217 216 215 213 211 209 207 205 203 202 202 202 203 203 204 204 205 207 209 212 213 213 213 213 214 214 212 211 211 214 217 219 222 225 228 228 228 228 229 232 236 241 245 248 250 251 251 250 248 245 243 242 241 240 240 239 238
233 234 234 233 232 232 232 232 231 231 230 229 227 225 224 223 221 220 220 219 218 218 218 218 219 219 220 219 217 216 214 212 211 209 206 204 202 201 200 201 201 202 203 204 205 205 207 208 210 212 213 214 215 216 216 216 216 216 218 220 223 227 230 233 234 233 233 233 235 239 243 247 250 252 253 253 252 250 248 245 243 241 240 239 238 238
234 235 235 234 233 232 231 230 229 229 228 227 225 223 222 221 220 219 218 217 216 216 216 216 217 218 218 218 217 215 214 212 210 208 205 203 201 200 199 200 201 202 203 204 206 207 209 210 211 213 214 215 217 219 220 220 221 221 223 225 227 230 233 236 237 237 237 237 239 242 245 248 250 251 253 253 253 251 249 247 244 242 239 238 237 236
235 236 236 236 234 232 231 229 229 228 227 226 224 222 220 219 219 218 217 216 215 214 214 215 215 216 215 215 214 213 212 211 210 208 206 203 202 201 200 200 200 201 202 204 205 207 209 211 212 213 214 216 218 221 222 224 225 226 227 229 231 233 234 236 239 240 240 241 243 245 247 248 249 250 251 252 252 251 249 247 244 242 239 237 236 234
235 236 236 236 235 233 232 231 230 229 227 226 224 221 218 217 216 216 216 215 215 215 215 215 215 215 214 212 210 209 208 208 207 207 206 204 203 202 201 201 201 201 202 203 205 207 209 211 213 214 214 215 217 219 222 224 226 229 231 233 235 236 235 236 239 241 243 244 246 247 247 247 248 249 250 251 251 250 248 246 243 242 240 238 236 235
234 235 236 236 236 235 234 233 231 230 228 226 224 221 218 216 214 214 214 214 214 214 214 215 215 215 214 211 208 207 205 205 204 204 204 203 202 202 202 202 202 202 202 203 204 206 208 210 212 215 217 218 219 219 221 224 227 231 233 236 238 238 238 238 240 242 244 246 247 248 247 246 247 248 249 249 250 249 247 245 243 241 241 240 238 237